Weather History for Syracuse, NY

Change the Weather History Date:

Monday, April 22, 2013

  Actual Average Record
Temperature  
Mean Temperature 45 °F 50 °F  
Max Temperature 60 °F 60 °F 85 °F (1954)
Min Temperature 29 °F 39 °F 25 °F (1978)
Degree Days  
Heating Degree Days 20 16  
Month to date heating degree days 465 436  
Since 1 July heating degree days 5800 6224  
Cooling Degree Days 0 0  
Month to date cooling degree days 0 0  
Year to date cooling degree days 0 0  
Moisture  
Dew Point 23 °F    
Average Humidity 50    
Maximum Humidity 78    
Minimum Humidity 21    
Precipitation  
Precipitation 0.00 in 0.10 in 1.26 in (2006)
Month to date precipitation 3.25 2.39  
Year to date precipitation 9.69 9.91  
Snow  
Snow 0.00 in 0.10 in 6.20 in (1993)
Month to date snowfall 12.0 3.4  
Since 1 July snowfall 115.4 123.3  
Snow Depth 0.00 in    
Sea Level Pressure  
Sea Level Pressure 30.52 in    
Wind  
Wind Speed 9 mph (ESE)    
Max Wind Speed 21 mph    
Max Gust Speed 26 mph    
Visibility 10 miles    
Events      
T = Trace of Precipitation, MM = Missing Value Source: NWS Daily Summary

Daily Weather History Graph

Daily Weather History Graph

Search for Another Location

Airport:

Trip Planner

Search our weather history database for the weather conditions in past years. The results will help you decide how hot, cold, wet, or windy it might be!

Date:

Astronomy

Apr. 22, 2013 Rise Set
Actual Time 6:10 AM EDT 7:55 PM EDT
Civil Twilight 5:40 AM EDT 8:25 PM EDT
Nautical Twilight 5:04 AM EDT 9:02 PM EDT
Astronomical Twilight 4:24 AM EDT 9:42 PM EDT
Moon 4:37 PM EDT (4/22) 4:09 AM EDT (4/22)
Length of Visible Light 14h 45m
Length of Day
13h 44m
Waxing Gibbous, 87% of the Moon is Illuminated
Apr 22
Waxing Gibbous
Apr 25
Full
May 2
Last Quarter
May 9
New
May 18
First Quarter

Hourly Weather History & Observations

Time (EDT) Temp. Windchill Dew Point Humidity Pressure Visibility Wind Dir Wind Speed Gust Speed Precip Events Conditions
12:54 AM 33.1 °F - 23.0 °F 66% 30.63 in 10.0 mi Calm Calm - N/A   Mostly Cloudy
1:54 AM 30.0 °F 25.2 °F 23.0 °F 75% 30.61 in 10.0 mi ESE 4.6 mph - N/A   Scattered Clouds
2:54 AM 30.0 °F 25.2 °F 23.0 °F 75% 30.60 in 10.0 mi East 4.6 mph - N/A   Scattered Clouds
3:54 AM 30.0 °F 25.2 °F 24.1 °F 79% 30.59 in 10.0 mi East 4.6 mph - N/A   Scattered Clouds
4:54 AM 30.0 °F 22.4 °F 24.1 °F 79% 30.59 in 10.0 mi East 8.1 mph - N/A   Scattered Clouds
5:54 AM 30.0 °F 26.5 °F 24.1 °F 79% 30.61 in 10.0 mi East 3.5 mph - N/A   Mostly Cloudy
6:54 AM 30.9 °F 27.5 °F 23.0 °F 72% 30.62 in 10.0 mi East 3.5 mph - N/A   Overcast
7:54 AM 36.0 °F 30.3 °F 25.0 °F 64% 30.62 in 10.0 mi East 6.9 mph - N/A   Overcast
8:54 AM 42.1 °F 37.7 °F 24.1 °F 49% 30.62 in 10.0 mi East 6.9 mph - N/A   Overcast
9:54 AM 48.0 °F - 25.0 °F 41% 30.61 in 10.0 mi East 8.1 mph - N/A   Overcast
10:54 AM 52.0 °F - 24.1 °F 34% 30.60 in 10.0 mi SSE 15.0 mph 20.7 mph N/A   Overcast
11:54 AM 53.1 °F - 24.1 °F 32% 30.58 in 10.0 mi SSE 13.8 mph - N/A   Overcast
12:54 PM 54.0 °F - 25.0 °F 33% 30.55 in 10.0 mi ESE 13.8 mph 18.4 mph N/A   Overcast
1:54 PM 55.9 °F - 25.0 °F 30% 30.52 in 10.0 mi East 11.5 mph - N/A   Mostly Cloudy
2:54 PM 57.0 °F - 23.0 °F 27% 30.48 in 10.0 mi East 12.7 mph 20.7 mph N/A   Scattered Clouds
3:54 PM 57.9 °F - 23.0 °F 26% 30.45 in 10.0 mi ESE 13.8 mph 20.7 mph N/A   Scattered Clouds
4:54 PM 59.0 °F - 23.0 °F 25% 30.42 in 10.0 mi ESE 5.8 mph 20.7 mph N/A   Scattered Clouds
5:54 PM 59.0 °F - 19.9 °F 22% 30.40 in 10.0 mi ESE 12.7 mph - N/A   Partly Cloudy
6:54 PM 57.9 °F - 21.0 °F 24% 30.40 in 10.0 mi ESE 9.2 mph - N/A   Clear
7:54 PM 55.0 °F - 21.0 °F 27% 30.40 in 10.0 mi South 10.4 mph - N/A   Clear
8:54 PM 52.0 °F - 21.9 °F 31% 30.41 in 10.0 mi SSE 9.2 mph - N/A   Clear
9:54 PM 50.0 °F - 23.0 °F 35% 30.41 in 10.0 mi SE 8.1 mph - N/A   Clear
10:54 PM 48.0 °F - 21.9 °F 36% 30.40 in 10.0 mi SSE 8.1 mph - N/A   Clear
11:54 PM 46.0 °F 41.9 °F 21.9 °F 39% 30.40 in 10.0 mi SE 8.1 mph - N/A   Clear